Luverne, MN

11:17 PM CST on December 12, 2019 (GMT -0600)
Luverne

Weather History for KLYV - November, 2019

Change the Weather History Date:

Tuesday, November 19, 2019

  Actual Average (KPQN) Record (KPQN)
Temperature  
Mean Temperature 37 °F -  
Max Temperature 44 °F 37 °F 62 °F (2003)
Min Temperature 30 °F 21 °F 6 °F (2018)
Degree Days  
Heating Degree Days 28    
Moisture  
Dew Point 31 °F    
Average Humidity 85    
Maximum Humidity 100    
Minimum Humidity 61    
Precipitation  
Precipitation 0.00 in - - ()
Sea Level Pressure  
Sea Level Pressure 29.86 in    
Wind  
Wind Speed 6 mph (NW)    
Max Wind Speed 12 mph    
Max Gust Speed -    
Visibility 10 miles    
Events      
Averages and records for this station are not official NWS values.
T = Trace of Precipitation, MM = Missing Value Source: NWS Daily Summary

Daily Weather History Graph

Daily Weather History Graph

Search for Another Location

Airport or City:

Astronomy

Nov. 19, 2019 Rise Set
Actual Time 7:23 AM CST 4:56 PM CST
Civil Twilight 6:52 AM CST 5:27 PM CST
Nautical Twilight 6:17 AM CST 6:02 PM CST
Astronomical Twilight 5:43 AM CST 6:36 PM CST
Moon 11:55 PM CST (11/19) 1:33 PM CST (11/19)
Length of Visible Light 10h 35m
Length of Day
9h 32m
Waning Gibbous, 51% of the Moon is Illuminated
Nov 19
Waning Gibbous
Nov 19
Last Quarter
Nov 26
New
Dec 4
First Quarter
Dec 11
Full

Hourly Weather History & Observations

Time (CST) Temp. Windchill Dew Point Humidity Pressure Visibility Wind Dir Wind Speed Gust Speed Precip Events Conditions
12:55 AM 33.8 °F 27.0 °F 32.0 °F 93% 29.75 in 7.0 mi West 8.1 mph - N/A   Clear
1:55 AM 33.8 °F 27.0 °F 32.0 °F 93% 29.75 in 7.0 mi West 8.1 mph - N/A   Clear
2:42 AM 32.0 °F 24.8 °F 32.0 °F 100% 29.75 in 7.0 mi WNW 8.1 mph - N/A   Clear
2:57 AM 32.0 °F 24.2 °F 32.0 °F 100% 29.75 in 7.0 mi WNW 9.2 mph - N/A   Clear
3:15 AM 32.0 °F 25.6 °F 32.0 °F 100% 29.75 in 10.0 mi WNW 6.9 mph - N/A   Clear
3:36 AM 33.8 °F 27.0 °F 32.0 °F 93% 29.75 in 10.0 mi NW 8.1 mph - N/A   Clear
3:56 AM 33.8 °F 26.4 °F 32.0 °F 93% 29.76 in 10.0 mi NW 9.2 mph - N/A   Clear
4:16 AM 33.8 °F 26.4 °F 32.0 °F 93% 29.76 in 10.0 mi NW 9.2 mph - N/A   Clear
4:38 AM 32.0 °F 24.8 °F 30.2 °F 93% 29.76 in 10.0 mi WNW 8.1 mph - N/A   Clear
4:56 AM 32.0 °F 27.5 °F 30.2 °F 93% 29.76 in 10.0 mi NW 4.6 mph - N/A   Clear
5:16 AM 32.0 °F 24.2 °F 30.2 °F 93% 29.78 in 10.0 mi WNW 9.2 mph - N/A   Clear
5:36 AM 32.0 °F 23.0 °F 30.2 °F 93% 29.78 in 10.0 mi West 11.5 mph - N/A   Clear
5:55 AM 32.0 °F 24.2 °F 30.2 °F 93% 29.79 in 10.0 mi WNW 9.2 mph - N/A   Clear
6:18 AM 32.0 °F 24.2 °F 30.2 °F 93% 29.80 in 10.0 mi WNW 9.2 mph - N/A   Clear
6:36 AM 32.0 °F 25.6 °F 28.4 °F 87% 29.80 in 10.0 mi WNW 6.9 mph - N/A   Clear
6:56 AM 30.2 °F 24.3 °F 28.4 °F 93% 29.81 in 10.0 mi WNW 5.8 mph - N/A   Clear
7:16 AM 30.2 °F 23.4 °F 28.4 °F 93% 29.82 in 10.0 mi WNW 6.9 mph - N/A   Clear
7:38 AM 30.2 °F - 28.4 °F 93% 29.83 in 10.0 mi Calm Calm - N/A   Clear
7:56 AM 30.2 °F 26.7 °F 28.4 °F 93% 29.83 in 10.0 mi West 3.5 mph - N/A   Clear
8:16 AM 32.0 °F 28.7 °F 28.4 °F 87% 29.84 in 10.0 mi West 3.5 mph - N/A   Clear
8:36 AM 32.0 °F - 30.2 °F 93% 29.85 in 10.0 mi Calm Calm - N/A   Clear
8:55 AM 32.0 °F 27.5 °F 30.2 °F 93% 29.85 in 10.0 mi NW 4.6 mph - N/A   Clear
8:59 AM 32.0 °F 27.5 °F 30.2 °F 93% 29.85 in 10.0 mi WNW 4.6 mph - N/A   Clear
9:17 AM 33.8 °F 27.7 °F 30.2 °F 87% 29.85 in 10.0 mi WNW 6.9 mph - N/A   Clear
9:35 AM 33.8 °F 28.6 °F 32.0 °F 93% 29.86 in 10.0 mi WNW 5.8 mph - N/A   Clear
10:16 AM 37.4 °F 30.3 °F 32.0 °F 81% 29.87 in 10.0 mi WNW 10.4 mph - N/A   Clear
10:38 AM 39.2 °F 33.6 °F 32.0 °F 75% 29.88 in 10.0 mi NW 8.1 mph - N/A   Clear
10:56 AM 41.0 °F 34.7 °F 32.0 °F 70% 29.89 in 10.0 mi NW 10.4 mph - N/A   Clear
11:16 AM 41.0 °F 36.4 °F 32.0 °F 70% 29.88 in 10.0 mi NW 6.9 mph - N/A   Clear
11:35 AM 41.0 °F 34.7 °F 33.8 °F 76% 29.87 in 10.0 mi NW 10.4 mph - N/A   Clear
11:55 AM 42.8 °F 36.6 °F 33.8 °F 70% 29.88 in 10.0 mi NW 11.5 mph - N/A   Clear
11:59 AM 42.8 °F 38.0 °F 33.8 °F 70% 29.88 in 10.0 mi WNW 8.1 mph - N/A   Clear
12:16 PM 42.8 °F 37.0 °F 33.8 °F 70% 29.88 in 10.0 mi WNW 10.4 mph - N/A   Clear
12:35 PM 42.8 °F 38.0 °F 33.8 °F 70% 29.87 in 10.0 mi NW 8.1 mph - N/A   Clear
12:56 PM 44.6 °F 39.7 °F 33.8 °F 66% 29.87 in 10.0 mi NNW 9.2 mph - N/A   Clear
1:15 PM 44.6 °F 39.2 °F 33.8 °F 66% 29.87 in 10.0 mi NNW 10.4 mph - N/A   Scattered Clouds
1:20 PM 44.6 °F 39.2 °F 32.0 °F 61% 29.87 in 10.0 mi NNW 10.4 mph - N/A   Scattered Clouds
1:37 PM 42.8 °F 36.6 °F 32.0 °F 66% 29.87 in 10.0 mi NW 11.5 mph - N/A   Scattered Clouds
1:56 PM 44.6 °F 40.7 °F 32.0 °F 61% 29.87 in 10.0 mi WNW 6.9 mph - N/A   Clear
2:15 PM 44.6 °F 39.7 °F 32.0 °F 61% 29.87 in 10.0 mi NW 9.2 mph - N/A   Clear
2:39 PM 44.6 °F 41.4 °F 33.8 °F 66% 29.87 in 10.0 mi North 5.8 mph - N/A   Clear
2:56 PM 44.6 °F 41.4 °F 33.8 °F 66% 29.88 in 10.0 mi NNW 5.8 mph - N/A   Scattered Clouds
3:15 PM 44.6 °F 41.4 °F 33.8 °F 66% 29.87 in 10.0 mi North 5.8 mph - N/A   Scattered Clouds
3:35 PM 44.6 °F 43.1 °F 32.0 °F 61% 29.88 in 10.0 mi NNW 3.5 mph - N/A   Scattered Clouds
3:56 PM 44.6 °F - 32.0 °F 61% 29.89 in 10.0 mi Calm Calm - N/A   Clear
4:15 PM 42.8 °F - 33.8 °F 70% 29.89 in 10.0 mi Calm Calm - N/A   Clear
4:35 PM 42.8 °F - 32.0 °F 66% 29.88 in 10.0 mi Calm Calm - N/A   Clear
4:56 PM 41.0 °F - 33.8 °F 76% 29.88 in 10.0 mi Calm Calm - N/A   Clear
5:56 PM 33.8 °F - 32.0 °F 93% 29.89 in 10.0 mi Calm Calm - N/A   Clear
6:15 PM 33.8 °F - 32.0 °F 93% 29.90 in 10.0 mi Calm Calm - N/A   Clear
6:36 PM 33.8 °F - 32.0 °F 93% 29.90 in 10.0 mi Calm Calm - N/A   Clear
6:56 PM 32.0 °F - 30.2 °F 93% 29.91 in 10.0 mi Calm Calm - N/A   Clear
7:16 PM 32.0 °F - 30.2 °F 93% 29.90 in 10.0 mi Calm Calm - N/A   Clear
7:36 PM 32.0 °F - 30.2 °F 93% 29.91 in 10.0 mi Calm Calm - N/A   Clear
7:56 PM 32.0 °F - 30.2 °F 93% 29.92 in 10.0 mi Calm Calm - N/A   Clear
8:15 PM 32.0 °F - 30.2 °F 93% 29.92 in 10.0 mi Calm Calm - N/A   Clear
8:35 PM 32.0 °F - 30.2 °F 93% 29.92 in 10.0 mi Calm Calm - N/A   Clear
8:56 PM 32.0 °F - 30.2 °F 93% 29.94 in 10.0 mi Calm Calm - N/A   Clear
9:15 PM 32.0 °F 27.5 °F 30.2 °F 93% 29.93 in 10.0 mi East 4.6 mph - N/A   Clear
9:36 PM 32.0 °F - 30.2 °F 93% 29.95 in 10.0 mi Calm Calm - N/A   Clear
9:55 PM 30.2 °F - 30.2 °F 100% 29.95 in 10.0 mi Calm Calm - N/A   Clear
10:15 PM 32.0 °F - 30.2 °F 93% 29.95 in 10.0 mi Calm Calm - N/A   Clear
10:36 PM 32.0 °F 27.5 °F 30.2 °F 93% 29.95 in 10.0 mi East 4.6 mph - N/A   Clear
10:55 PM 32.0 °F - 30.2 °F 93% 29.95 in 10.0 mi Calm Calm - N/A   Clear
11:15 PM 32.0 °F - 32.0 °F 100% 29.94 in 10.0 mi Calm Calm - N/A   Clear
11:35 PM 32.0 °F - 32.0 °F 100% 29.94 in 10.0 mi Calm Calm - N/A   Clear
11:56 PM 32.0 °F 28.7 °F 32.0 °F 100% 29.95 in 10.0 mi ESE 3.5 mph - N/A   Clear